DAL2081 MWCR-KJFK

Flight info

Callsign DAL2081
Flight time 3h 9m
Altitude 35000
Route ALTIB UM779 ZEUSS/N0470F350 Y329 ZFP Y319 JAZZI DCT SAGGY DCT CHIEZ Q161 KALDA Q108 SIE CAMRN5
Aircraft B739/M-SDE2E3FGHIRWXY/LB1

Departure

Time 2026-05-08 03:31
Airport Owen Roberts International Airport (MWCR)

Arrival

Time 2026-05-08 06:40
Airport John F. Kennedy International Airport (KJFK)
Time Latitude Longitude Altitude Speed Heading
2026-05-08 03:18 19.29503 -81.35805 16 ft 0 kts 346°
2026-05-08 03:23 19.29500 -81.35804 16 ft 1 kts 346°
2026-05-08 03:24 19.29484 -81.35800 16 ft 0 kts 341°
2026-05-08 03:24 19.29469 -81.35794 16 ft 0 kts 332°
2026-05-08 03:24 19.29456 -81.35785 16 ft 2 kts 318°
2026-05-08 03:24 19.29446 -81.35774 16 ft 2 kts 292°
2026-05-08 03:25 19.29444 -81.35760 16 ft 1 kts 257°
2026-05-08 03:25 19.29447 -81.35745 16 ft 1 kts 256°
2026-05-08 03:27 19.29439 -81.35774 16 ft 12 kts 253°
2026-05-08 03:27 19.29380 -81.35816 16 ft 12 kts 173°
2026-05-08 03:28 19.29285 -81.35810 16 ft 14 kts 211°
2026-05-08 03:28 19.29250 -81.35899 16 ft 14 kts 255°
2026-05-08 03:28 19.29221 -81.36015 16 ft 19 kts 256°
2026-05-08 03:28 19.29187 -81.36163 16 ft 23 kts 256°
2026-05-08 03:29 19.29147 -81.36336 16 ft 24 kts 256°
2026-05-08 03:29 19.29109 -81.36497 16 ft 22 kts 256°
2026-05-08 03:29 19.29086 -81.36649 16 ft 18 kts 275°
2026-05-08 03:29 19.29085 -81.36749 16 ft 11 kts 224°
2026-05-08 03:30 19.29093 -81.36541 16 ft 41 kts 74°
2026-05-08 03:30 19.29485 -81.34879 196 ft 172 kts 76°
2026-05-08 03:31 19.29899 -81.32347 2302 ft 162 kts 83°
2026-05-08 03:31 19.30774 -81.30238 3575 ft 179 kts 48°
2026-05-08 03:32 19.31782 -81.29297 3925 ft 205 kts 36°
2026-05-08 03:32 19.33016 -81.28346 4278 ft 235 kts 36°
2026-05-08 03:32 19.34394 -81.27291 4841 ft 250 kts 36°
2026-05-08 03:32 19.35808 -81.26208 5768 ft 252 kts 36°
2026-05-08 03:33 19.37242 -81.25108 6619 ft 256 kts 36°
2026-05-08 03:33 19.38692 -81.23995 7386 ft 264 kts 36°
2026-05-08 03:33 19.40221 -81.22821 7984 ft 281 kts 36°
2026-05-08 03:33 19.41833 -81.21582 8867 ft 287 kts 36°
2026-05-08 03:34 19.43457 -81.20333 9771 ft 291 kts 36°
2026-05-08 03:34 19.45116 -81.19057 10652 ft 297 kts 36°
2026-05-08 03:34 19.46800 -81.17761 11291 ft 311 kts 36°
2026-05-08 03:34 19.48617 -81.16362 11666 ft 332 kts 36°
2026-05-08 03:35 19.49873 -81.15395 11876 ft 346 kts 36°
2026-05-08 03:35 19.51896 -81.13836 12305 ft 362 kts 36°
2026-05-08 03:35 19.53935 -81.12265 12986 ft 368 kts 36°
2026-05-08 03:35 19.56700 -81.10133 13943 ft 374 kts 36°
2026-05-08 03:36 19.58098 -81.09055 14412 ft 377 kts 36°
2026-05-08 03:36 19.60250 -81.07402 15110 ft 381 kts 36°
2026-05-08 03:36 19.62399 -81.05754 15786 ft 385 kts 36°
2026-05-08 03:36 19.64567 -81.04088 16440 ft 388 kts 36°
2026-05-08 03:37 19.66782 -81.02384 17080 ft 392 kts 36°
2026-05-08 03:37 19.68999 -81.00677 17697 ft 396 kts 36°
2026-05-08 03:37 19.71256 -80.98938 18296 ft 400 kts 36°
2026-05-08 03:37 19.73479 -80.97224 18867 ft 403 kts 36°
2026-05-08 03:38 19.75776 -80.95451 19432 ft 407 kts 36°
2026-05-08 03:38 19.78068 -80.93682 19978 ft 410 kts 36°
2026-05-08 03:38 19.80392 -80.91887 20511 ft 413 kts 36°
2026-05-08 03:38 19.82714 -80.90093 21021 ft 417 kts 36°
2026-05-08 03:39 19.85068 -80.88273 21518 ft 420 kts 36°
2026-05-08 03:39 19.87431 -80.86445 21997 ft 423 kts 36°
2026-05-08 03:39 19.89825 -80.84594 22464 ft 426 kts 36°
2026-05-08 03:39 19.92235 -80.82728 22915 ft 429 kts 36°
2026-05-08 03:40 19.94675 -80.80839 23355 ft 432 kts 36°
2026-05-08 03:40 19.96983 -80.79051 23755 ft 435 kts 36°
2026-05-08 03:40 19.99504 -80.77098 24172 ft 437 kts 36°
2026-05-08 03:40 20.02016 -80.75151 24571 ft 440 kts 36°
2026-05-08 03:41 20.04470 -80.73248 24942 ft 443 kts 36°
2026-05-08 03:41 20.06973 -80.71305 25307 ft 445 kts 36°
2026-05-08 03:41 20.09456 -80.69378 25655 ft 448 kts 36°
2026-05-08 03:41 20.12015 -80.67392 25997 ft 450 kts 36°
2026-05-08 03:42 20.14522 -80.65444 26311 ft 452 kts 36°
2026-05-08 03:42 20.17058 -80.63473 26624 ft 455 kts 36°
2026-05-08 03:42 20.19617 -80.61484 26916 ft 457 kts 36°
2026-05-08 03:42 20.22186 -80.59486 27202 ft 459 kts 36°
2026-05-08 03:43 20.24790 -80.57460 27489 ft 461 kts 36°
2026-05-08 03:43 20.27404 -80.55425 27760 ft 463 kts 36°
2026-05-08 03:43 20.30021 -80.53387 28021 ft 465 kts 36°
2026-05-08 03:43 20.32612 -80.51369 28267 ft 467 kts 36°
2026-05-08 03:44 20.35209 -80.49345 28510 ft 469 kts 36°
2026-05-08 03:44 20.37867 -80.47272 28748 ft 471 kts 36°
2026-05-08 03:44 20.40514 -80.45208 28983 ft 472 kts 36°
2026-05-08 03:44 20.43169 -80.43136 29206 ft 474 kts 36°
2026-05-08 03:45 20.45854 -80.41039 29423 ft 475 kts 36°
2026-05-08 03:45 20.48494 -80.38977 29668 ft 476 kts 36°
2026-05-08 03:45 20.51160 -80.36894 29978 ft 475 kts 36°
2026-05-08 03:45 20.53839 -80.34799 30269 ft 474 kts 36°
2026-05-08 03:46 20.56471 -80.32741 30554 ft 474 kts 36°
2026-05-08 03:46 20.59145 -80.30648 30876 ft 472 kts 36°
2026-05-08 03:46 20.61795 -80.28574 31140 ft 472 kts 36°
2026-05-08 03:46 20.64426 -80.26513 31419 ft 472 kts 36°
2026-05-08 03:47 20.67068 -80.24444 31704 ft 471 kts 36°
2026-05-08 03:47 20.69690 -80.22388 31975 ft 470 kts 36°
2026-05-08 03:47 20.72371 -80.20286 32254 ft 470 kts 36°
2026-05-08 03:47 20.74976 -80.18242 32526 ft 469 kts 36°
2026-05-08 03:48 20.77384 -80.16352 32821 ft 467 kts 36°
2026-05-08 03:48 20.79920 -80.14361 33053 ft 467 kts 36°
2026-05-08 03:48 20.82542 -80.12301 33286 ft 467 kts 36°
2026-05-08 03:48 20.85171 -80.10235 33551 ft 466 kts 36°
2026-05-08 03:49 20.87810 -80.08160 33801 ft 466 kts 36°
2026-05-08 03:49 20.90342 -80.06169 34035 ft 465 kts 36°
2026-05-08 03:49 20.93005 -80.04073 34292 ft 464 kts 36°
2026-05-08 03:49 20.95603 -80.02028 34580 ft 463 kts 36°
2026-05-08 03:50 20.98133 -80.00035 34770 ft 463 kts 36°
2026-05-08 03:50 21.00763 -79.97963 34962 ft 463 kts 36°
2026-05-08 03:50 21.03369 -79.95908 35039 ft 465 kts 36°
2026-05-08 03:51 21.08576 -79.91801 35054 ft 463 kts 36°
2026-05-08 03:51 21.13751 -79.87715 35066 ft 462 kts 36°
2026-05-08 03:52 21.18940 -79.83615 35076 ft 462 kts 36°
2026-05-08 03:52 21.24106 -79.79528 35080 ft 462 kts 36°
2026-05-08 03:53 21.29272 -79.75438 35083 ft 462 kts 36°
2026-05-08 03:53 21.34313 -79.71444 35083 ft 465 kts 36°
2026-05-08 03:54 21.39616 -79.67238 35083 ft 473 kts 36°
2026-05-08 03:54 21.44912 -79.63035 35082 ft 478 kts 36°
2026-05-08 03:55 21.50272 -79.58776 35083 ft 481 kts 36°
2026-05-08 03:55 21.55684 -79.54472 35077 ft 483 kts 36°
2026-05-08 03:56 21.61063 -79.50190 35069 ft 485 kts 36°
2026-05-08 03:56 21.66515 -79.45846 35060 ft 485 kts 36°
2026-05-08 03:57 21.71893 -79.41556 35052 ft 485 kts 36°
2026-05-08 03:57 21.77306 -79.37235 35049 ft 485 kts 36°
2026-05-08 03:58 21.82718 -79.32910 35041 ft 486 kts 36°
2026-05-08 03:58 21.88153 -79.28563 35030 ft 486 kts 37°
2026-05-08 03:59 21.93583 -79.24216 35024 ft 486 kts 37°
2026-05-08 03:59 21.99039 -79.19843 35023 ft 486 kts 37°
2026-05-08 04:00 22.04425 -79.15522 35023 ft 487 kts 37°
2026-05-08 04:00 22.09850 -79.11165 35023 ft 487 kts 37°
2026-05-08 04:01 22.15303 -79.06783 35023 ft 487 kts 37°
2026-05-08 04:01 22.20698 -79.02442 35023 ft 487 kts 37°
2026-05-08 04:02 22.26132 -78.98066 35023 ft 487 kts 37°
2026-05-08 04:02 22.31567 -78.93684 35020 ft 487 kts 37°
2026-05-08 04:03 22.36984 -78.89312 35011 ft 487 kts 37°
2026-05-08 04:03 22.45149 -78.82715 34996 ft 486 kts 37°
2026-05-08 04:04 22.50523 -78.78367 34994 ft 485 kts 37°
2026-05-08 04:04 22.55931 -78.74006 34994 ft 484 kts 37°
2026-05-08 04:05 22.61298 -78.69655 34994 ft 484 kts 37°
2026-05-08 04:05 22.66730 -78.65242 34994 ft 484 kts 37°
2026-05-08 04:06 22.72067 -78.60902 34994 ft 484 kts 37°
2026-05-08 04:06 22.74899 -78.58911 34985 ft 483 kts 26°
2026-05-08 04:06 22.78039 -78.57724 34991 ft 483 kts 12°
2026-05-08 04:07 22.81436 -78.57393 34998 ft 483 kts 359°
2026-05-08 04:07 22.84790 -78.57687 34997 ft 484 kts 352°
2026-05-08 04:07 22.91376 -78.58901 34994 ft 483 kts 349°
2026-05-08 04:08 22.98011 -78.60211 34994 ft 483 kts 350°
2026-05-08 04:08 23.04652 -78.61484 34994 ft 483 kts 350°
2026-05-08 04:09 23.11287 -78.62744 34994 ft 483 kts 350°
2026-05-08 04:09 23.17857 -78.63982 34994 ft 483 kts 350°
2026-05-08 04:10 23.24497 -78.65236 34994 ft 483 kts 350°
2026-05-08 04:10 23.31112 -78.66488 34994 ft 483 kts 350°
2026-05-08 04:11 23.37728 -78.67741 34994 ft 483 kts 350°
2026-05-08 04:11 23.44412 -78.69008 34994 ft 483 kts 350°
2026-05-08 04:12 23.50966 -78.70252 34994 ft 483 kts 350°
2026-05-08 04:12 23.57612 -78.71515 34994 ft 483 kts 350°
2026-05-08 04:13 23.64237 -78.72775 34994 ft 483 kts 350°
2026-05-08 04:13 23.70843 -78.74030 34994 ft 483 kts 350°
2026-05-08 04:14 23.77492 -78.75296 34997 ft 483 kts 350°
2026-05-08 04:14 23.84094 -78.76557 35001 ft 483 kts 350°
2026-05-08 04:15 23.90728 -78.77825 35003 ft 483 kts 350°
2026-05-08 04:15 23.97347 -78.79073 35017 ft 483 kts 352°
2026-05-08 04:16 24.02928 -78.79500 35017 ft 483 kts 360°
2026-05-08 04:16 24.09655 -78.79284 35019 ft 483 kts
2026-05-08 04:17 24.16371 -78.79002 35023 ft 483 kts
2026-05-08 04:17 24.23075 -78.78738 35023 ft 483 kts
2026-05-08 04:18 24.29814 -78.78479 35023 ft 483 kts
2026-05-08 04:18 24.36529 -78.78224 35024 ft 483 kts
2026-05-08 04:19 24.43223 -78.77971 35023 ft 483 kts
2026-05-08 04:19 24.49947 -78.77716 35023 ft 483 kts
2026-05-08 04:20 24.56670 -78.77462 35023 ft 483 kts
2026-05-08 04:20 24.63362 -78.77208 35023 ft 483 kts
2026-05-08 04:21 24.70138 -78.76951 35023 ft 483 kts
2026-05-08 04:21 24.76827 -78.76697 35023 ft 483 kts
2026-05-08 04:22 24.83557 -78.76440 35023 ft 483 kts
2026-05-08 04:22 24.90270 -78.76185 35023 ft 483 kts
2026-05-08 04:23 24.96960 -78.75930 35024 ft 483 kts
2026-05-08 04:23 25.03698 -78.75672 35023 ft 483 kts
2026-05-08 04:24 25.10411 -78.75416 35023 ft 483 kts
2026-05-08 04:24 25.17146 -78.75158 35023 ft 482 kts
2026-05-08 04:25 25.23867 -78.74901 35023 ft 483 kts
2026-05-08 04:25 25.30539 -78.74645 35023 ft 483 kts
2026-05-08 04:26 25.37270 -78.74387 35023 ft 482 kts
2026-05-08 04:26 25.43981 -78.74129 35026 ft 482 kts
2026-05-08 04:27 25.50653 -78.73872 35032 ft 482 kts
2026-05-08 04:27 25.57411 -78.73612 35043 ft 482 kts
2026-05-08 04:28 25.64080 -78.73355 35047 ft 482 kts
2026-05-08 04:28 25.70791 -78.73096 35052 ft 482 kts
2026-05-08 04:29 25.77505 -78.72836 35053 ft 482 kts
2026-05-08 04:29 25.84188 -78.72578 35053 ft 482 kts
2026-05-08 04:30 25.90946 -78.72316 35053 ft 482 kts
2026-05-08 04:30 25.97611 -78.72057 35053 ft 482 kts
2026-05-08 04:31 26.04342 -78.71796 35053 ft 482 kts
2026-05-08 04:31 26.11074 -78.71534 35053 ft 482 kts
2026-05-08 04:32 26.17753 -78.71275 35053 ft 482 kts
2026-05-08 04:32 26.24459 -78.71014 35051 ft 482 kts
2026-05-08 04:33 26.31186 -78.70752 35032 ft 482 kts
2026-05-08 04:33 26.37833 -78.70492 35024 ft 482 kts
2026-05-08 04:34 26.44559 -78.70229 35023 ft 482 kts
2026-05-08 04:34 26.51244 -78.69967 35024 ft 482 kts
2026-05-08 04:35 26.57952 -78.69546 35024 ft 482 kts
2026-05-08 04:35 26.64585 -78.68529 35023 ft 482 kts
2026-05-08 04:36 26.71184 -78.67473 35024 ft 482 kts
2026-05-08 04:36 26.77801 -78.66456 35023 ft 482 kts
2026-05-08 04:37 26.84494 -78.65439 35024 ft 482 kts
2026-05-08 04:37 26.91080 -78.64445 35023 ft 482 kts
2026-05-08 04:38 26.97755 -78.63440 35023 ft 482 kts
2026-05-08 04:38 27.04404 -78.62435 35023 ft 482 kts
2026-05-08 04:39 27.11053 -78.61429 35024 ft 482 kts
2026-05-08 04:39 27.17714 -78.60420 35023 ft 482 kts
2026-05-08 04:40 27.24338 -78.59418 35023 ft 482 kts
2026-05-08 04:40 27.30960 -78.58411 35024 ft 482 kts
2026-05-08 04:41 27.37575 -78.57404 35023 ft 482 kts
2026-05-08 04:41 27.44204 -78.56393 35023 ft 482 kts
2026-05-08 04:42 27.50879 -78.55374 35023 ft 482 kts
2026-05-08 04:42 27.57469 -78.54369 35023 ft 480 kts
2026-05-08 04:43 27.64093 -78.53355 35023 ft 480 kts
2026-05-08 04:43 27.70750 -78.52335 35024 ft 480 kts
2026-05-08 04:44 27.77363 -78.51320 35023 ft 480 kts
2026-05-08 04:44 27.83973 -78.50306 35023 ft 480 kts
2026-05-08 04:45 27.90588 -78.49295 35023 ft 480 kts
2026-05-08 04:45 27.97229 -78.48276 35023 ft 480 kts
2026-05-08 04:46 28.03838 -78.47259 35024 ft 480 kts
2026-05-08 04:46 28.10484 -78.46236 35023 ft 480 kts
2026-05-08 04:47 28.17117 -78.45212 35024 ft 481 kts
2026-05-08 04:47 28.23713 -78.44193 35024 ft 481 kts
2026-05-08 04:48 28.30383 -78.43162 35023 ft 481 kts
2026-05-08 04:48 28.37010 -78.42135 35024 ft 481 kts
2026-05-08 04:49 28.43637 -78.41108 35023 ft 481 kts
2026-05-08 04:49 28.50298 -78.40073 35024 ft 481 kts
2026-05-08 04:50 28.56928 -78.39042 35023 ft 481 kts
2026-05-08 04:50 28.63572 -78.38008 35023 ft 481 kts
2026-05-08 04:51 28.70228 -78.36971 35024 ft 481 kts
2026-05-08 04:51 28.76877 -78.35933 35023 ft 481 kts
2026-05-08 04:52 28.83466 -78.34904 35023 ft 480 kts
2026-05-08 04:52 28.90072 -78.33870 35023 ft 478 kts
2026-05-08 04:53 28.96655 -78.32839 35024 ft 478 kts
2026-05-08 04:53 29.00958 -78.32164 35020 ft 478 kts
2026-05-08 04:54 29.05924 -78.31388 35004 ft 478 kts
2026-05-08 04:54 29.12490 -78.30354 35018 ft 478 kts
2026-05-08 04:55 29.19061 -78.29319 35023 ft 478 kts
2026-05-08 04:55 29.25703 -78.28272 35023 ft 478 kts
2026-05-08 04:56 29.32243 -78.27240 35023 ft 478 kts
2026-05-08 04:56 29.38871 -78.26193 35023 ft 478 kts
2026-05-08 04:57 29.45431 -78.25155 35023 ft 478 kts
2026-05-08 04:57 29.52053 -78.24106 35024 ft 478 kts
2026-05-08 04:58 29.58616 -78.23066 35024 ft 478 kts
2026-05-08 04:58 29.65171 -78.22025 35023 ft 478 kts
2026-05-08 04:59 29.71771 -78.20975 35023 ft 478 kts
2026-05-08 04:59 29.78413 -78.19917 35023 ft 478 kts
2026-05-08 05:00 29.84949 -78.18875 35023 ft 478 kts
2026-05-08 05:00 29.91576 -78.17817 35023 ft 478 kts
2026-05-08 05:01 29.98173 -78.16763 35023 ft 478 kts
2026-05-08 05:01 30.04751 -78.15709 35023 ft 478 kts
2026-05-08 05:02 30.11338 -78.14656 35024 ft 478 kts
2026-05-08 05:02 30.17912 -78.13603 35003 ft 474 kts
2026-05-08 05:03 30.24462 -78.12549 34995 ft 475 kts
2026-05-08 05:03 30.31015 -78.11492 34994 ft 475 kts
2026-05-08 05:04 30.37576 -78.10434 34994 ft 475 kts
2026-05-08 05:04 30.44133 -78.09386 34994 ft 475 kts
2026-05-08 05:05 30.50673 -78.08369 34994 ft 475 kts
2026-05-08 05:05 30.57186 -78.07352 34994 ft 475 kts
2026-05-08 05:06 30.63767 -78.06323 34994 ft 475 kts
2026-05-08 05:06 30.70339 -78.05294 34994 ft 475 kts
2026-05-08 05:07 30.76935 -78.04262 34994 ft 475 kts
2026-05-08 05:07 30.83446 -78.03248 34994 ft 475 kts
2026-05-08 05:08 30.90004 -78.02217 34994 ft 475 kts
2026-05-08 05:08 30.96516 -78.01191 34994 ft 475 kts
2026-05-08 05:09 31.03071 -78.00157 34994 ft 475 kts
2026-05-08 05:09 31.08553 -77.99292 34994 ft 475 kts
2026-05-08 05:10 31.18370 -77.97741 34994 ft 475 kts
2026-05-08 05:11 31.24961 -77.96695 34994 ft 475 kts
2026-05-08 05:11 31.31527 -77.95651 34994 ft 475 kts
2026-05-08 05:12 31.38062 -77.94608 34993 ft 475 kts
2026-05-08 05:12 31.44496 -77.93560 34982 ft 473 kts
2026-05-08 05:13 31.50986 -77.92537 34968 ft 473 kts
2026-05-08 05:13 31.57502 -77.91497 34964 ft 473 kts
2026-05-08 05:14 31.64041 -77.90455 34964 ft 473 kts
2026-05-08 05:14 31.70554 -77.89408 34964 ft 473 kts
2026-05-08 05:15 31.77087 -77.88355 34964 ft 473 kts
2026-05-08 05:15 31.83575 -77.87308 34965 ft 473 kts
2026-05-08 05:16 31.90162 -77.86270 34964 ft 473 kts
2026-05-08 05:16 31.96688 -77.85746 34964 ft 473 kts
2026-05-08 05:17 32.03257 -77.85284 34965 ft 473 kts
2026-05-08 05:17 32.09776 -77.84797 34964 ft 473 kts
2026-05-08 05:18 32.16364 -77.84292 34965 ft 473 kts
2026-05-08 05:18 32.22902 -77.83786 34964 ft 473 kts
2026-05-08 05:19 32.29507 -77.83277 34964 ft 473 kts
2026-05-08 05:19 32.36072 -77.82768 34964 ft 473 kts
2026-05-08 05:20 32.42601 -77.82260 34964 ft 473 kts
2026-05-08 05:20 32.49163 -77.81748 34964 ft 473 kts
2026-05-08 05:21 32.55741 -77.81234 34964 ft 473 kts
2026-05-08 05:21 32.62330 -77.80718 34964 ft 473 kts
2026-05-08 05:22 32.68898 -77.80203 34964 ft 473 kts
2026-05-08 05:22 32.75419 -77.79691 34981 ft 472 kts
2026-05-08 05:23 32.81968 -77.79176 34991 ft 472 kts
2026-05-08 05:23 32.88536 -77.78659 34994 ft 472 kts
2026-05-08 05:24 32.95080 -77.78143 34994 ft 472 kts
2026-05-08 05:24 33.01670 -77.77623 34994 ft 472 kts
2026-05-08 05:25 33.08223 -77.77104 34994 ft 472 kts
2026-05-08 05:25 33.14784 -77.76585 34994 ft 472 kts
2026-05-08 05:26 33.21319 -77.76066 34994 ft 472 kts
2026-05-08 05:26 33.27861 -77.75547 34994 ft 472 kts
2026-05-08 05:27 33.34448 -77.75022 34994 ft 472 kts
2026-05-08 05:27 33.41003 -77.74502 34994 ft 472 kts
2026-05-08 05:28 33.46170 -77.74090 34994 ft 472 kts
2026-05-08 05:28 33.52721 -77.73566 34994 ft 472 kts
2026-05-08 05:29 33.59318 -77.73037 34994 ft 472 kts
2026-05-08 05:29 33.65849 -77.72513 34994 ft 472 kts
2026-05-08 05:30 33.72345 -77.71607 34994 ft 472 kts
2026-05-08 05:30 33.78812 -77.70127 34994 ft 472 kts 11°
2026-05-08 05:31 33.85258 -77.68666 34994 ft 472 kts 10°
2026-05-08 05:31 33.91687 -77.67243 34994 ft 472 kts 10°
2026-05-08 05:32 33.98167 -77.65817 34994 ft 472 kts 10°
2026-05-08 05:32 34.04671 -77.64393 34979 ft 471 kts 10°
2026-05-08 05:33 34.11061 -77.62995 34967 ft 471 kts 10°
2026-05-08 05:33 34.17503 -77.61579 34965 ft 471 kts 10°
2026-05-08 05:34 34.23915 -77.60174 34965 ft 471 kts 10°
2026-05-08 05:34 34.30366 -77.58751 34964 ft 471 kts 10°
2026-05-08 05:35 34.36834 -77.57320 34964 ft 471 kts 10°
2026-05-08 05:35 34.43175 -77.55914 34964 ft 471 kts 10°
2026-05-08 05:36 34.49688 -77.54329 34965 ft 471 kts 15°
2026-05-08 05:36 34.55880 -77.51621 34965 ft 471 kts 24°
2026-05-08 05:37 34.61759 -77.48115 34964 ft 471 kts 26°
2026-05-08 05:37 34.67633 -77.44555 34964 ft 471 kts 26°
2026-05-08 05:38 34.73510 -77.41013 34964 ft 471 kts 26°
2026-05-08 05:38 34.79397 -77.37468 34964 ft 471 kts 26°
2026-05-08 05:39 34.85260 -77.33955 34965 ft 471 kts 26°
2026-05-08 05:39 34.91135 -77.30435 34964 ft 471 kts 26°
2026-05-08 05:40 34.97020 -77.26893 34964 ft 471 kts 26°
2026-05-08 05:40 35.02906 -77.23342 34964 ft 471 kts 26°
2026-05-08 05:41 35.08780 -77.19791 34964 ft 471 kts 26°
2026-05-08 05:41 35.14465 -77.16348 34965 ft 471 kts 26°
2026-05-08 05:42 35.19392 -77.13360 34964 ft 471 kts 26°
2026-05-08 05:42 35.25246 -77.09804 34970 ft 470 kts 26°
2026-05-08 05:43 35.31099 -77.06256 34988 ft 468 kts 26°
2026-05-08 05:43 35.36940 -77.02703 34997 ft 469 kts 26°
2026-05-08 05:44 35.42771 -76.99138 34999 ft 469 kts 26°
2026-05-08 05:44 35.48602 -76.95566 35002 ft 468 kts 26°
2026-05-08 05:45 35.54433 -76.91990 35007 ft 467 kts 26°
2026-05-08 05:45 35.60217 -76.88447 35010 ft 468 kts 26°
2026-05-08 05:46 35.66094 -76.84895 34998 ft 468 kts 26°
2026-05-08 05:46 35.71937 -76.81335 34997 ft 467 kts 26°
2026-05-08 05:47 35.77686 -76.77818 34996 ft 468 kts 26°
2026-05-08 05:47 35.83474 -76.74271 34994 ft 468 kts 26°
2026-05-08 05:48 35.89332 -76.70680 34995 ft 468 kts 26°
2026-05-08 05:48 35.95106 -76.66957 34996 ft 468 kts 29°
2026-05-08 05:49 36.00668 -76.63145 34994 ft 468 kts 29°
2026-05-08 05:49 36.06533 -76.59151 34997 ft 468 kts 28°
2026-05-08 05:50 36.12198 -76.55300 34999 ft 468 kts 28°
2026-05-08 05:50 36.17899 -76.51423 34999 ft 468 kts 28°
2026-05-08 05:51 36.23614 -76.47556 34999 ft 468 kts 28°
2026-05-08 05:51 36.29322 -76.43694 34999 ft 468 kts 28°
2026-05-08 05:52 36.35024 -76.39817 34994 ft 468 kts 28°
2026-05-08 05:52 36.40727 -76.35929 34992 ft 468 kts 28°
2026-05-08 05:53 36.46440 -76.32026 34994 ft 468 kts 28°
2026-05-08 05:53 36.52125 -76.28134 34992 ft 467 kts 28°
2026-05-08 05:54 36.57812 -76.24235 34977 ft 464 kts 29°
2026-05-08 05:54 36.63454 -76.20359 34968 ft 463 kts 29°
2026-05-08 05:55 36.69101 -76.16474 34965 ft 464 kts 29°
2026-05-08 05:55 36.74760 -76.12573 34966 ft 465 kts 29°
2026-05-08 05:56 36.80424 -76.08663 34969 ft 465 kts 29°
2026-05-08 05:56 36.86101 -76.04761 34969 ft 466 kts 29°
2026-05-08 05:57 36.91727 -76.00859 34969 ft 466 kts 29°
2026-05-08 05:57 36.97395 -75.96917 34969 ft 465 kts 29°
2026-05-08 05:58 37.03075 -75.92961 34966 ft 465 kts 29°
2026-05-08 05:58 37.08809 -75.89279 34964 ft 465 kts 22°
2026-05-08 05:59 37.14966 -75.86722 34964 ft 466 kts 15°
2026-05-08 05:59 37.21223 -75.84600 34964 ft 466 kts 15°
2026-05-08 06:00 37.27476 -75.82445 34963 ft 465 kts 15°
2026-05-08 06:00 37.33723 -75.80275 34960 ft 465 kts 15°
2026-05-08 06:01 37.39961 -75.78100 34960 ft 465 kts 15°
2026-05-08 06:01 37.46177 -75.75942 34961 ft 465 kts 15°
2026-05-08 06:02 37.50449 -75.74455 34965 ft 466 kts 15°
2026-05-08 06:02 37.54756 -75.72955 34966 ft 466 kts 12°
2026-05-08 06:03 37.60012 -75.71133 34971 ft 466 kts 15°
2026-05-08 06:03 37.64945 -75.69366 34981 ft 467 kts 18°
2026-05-08 06:04 37.70329 -75.67459 35000 ft 467 kts 15°
2026-05-08 06:04 37.76608 -75.65277 34985 ft 466 kts 15°
2026-05-08 06:05 37.82739 -75.62798 34987 ft 467 kts 22°
2026-05-08 06:05 37.88287 -75.59126 34963 ft 465 kts 32°
2026-05-08 06:06 37.93595 -75.54572 34970 ft 461 kts 36°
2026-05-08 06:06 37.98872 -75.49901 34969 ft 462 kts 34°
2026-05-08 06:07 38.04195 -75.45265 34970 ft 462 kts 34°
2026-05-08 06:07 38.09561 -75.40786 34969 ft 462 kts 32°
2026-05-08 06:08 38.14993 -75.36391 34968 ft 463 kts 33°
2026-05-08 06:08 38.20396 -75.31963 34964 ft 464 kts 33°
2026-05-08 06:09 38.26188 -75.28372 34964 ft 463 kts 18°
2026-05-08 06:09 38.32469 -75.26502 34963 ft 464 kts
2026-05-08 06:10 38.37765 -75.25472 34960 ft 465 kts
2026-05-08 06:10 38.44122 -75.24164 34957 ft 464 kts
2026-05-08 06:11 38.50346 -75.22857 34954 ft 464 kts
2026-05-08 06:11 38.56040 -75.21643 34951 ft 464 kts 11°
2026-05-08 06:12 38.62298 -75.20279 34950 ft 464 kts
2026-05-08 06:12 38.68537 -75.18498 34945 ft 464 kts 20°
2026-05-08 06:13 38.74301 -75.14556 34944 ft 464 kts 34°
2026-05-08 06:13 38.79488 -75.09658 34937 ft 465 kts 38°
2026-05-08 06:14 38.84592 -75.04625 34937 ft 465 kts 37°
2026-05-08 06:14 38.89777 -74.99576 34657 ft 463 kts 37°
2026-05-08 06:14 38.92307 -74.97090 34130 ft 455 kts 37°
2026-05-08 06:15 38.94779 -74.94654 33537 ft 452 kts 37°
2026-05-08 06:15 38.97293 -74.92173 32931 ft 451 kts 37°
2026-05-08 06:15 38.99784 -74.89712 32331 ft 452 kts 37°
2026-05-08 06:15 39.02233 -74.87290 31742 ft 454 kts 37°
2026-05-08 06:16 39.04754 -74.84797 31138 ft 455 kts 37°
2026-05-08 06:16 39.07274 -74.82306 30537 ft 457 kts 37°
2026-05-08 06:16 39.09787 -74.79815 29938 ft 458 kts 38°
2026-05-08 06:16 39.11251 -74.78323 29586 ft 458 kts 38°
2026-05-08 06:17 39.15282 -74.73936 28604 ft 459 kts 40°
2026-05-08 06:17 39.17720 -74.71273 28003 ft 459 kts 40°
2026-05-08 06:17 39.20186 -74.68617 27400 ft 460 kts 40°
2026-05-08 06:18 39.22642 -74.65960 26797 ft 460 kts 40°
2026-05-08 06:18 39.25068 -74.63327 26202 ft 459 kts 40°
2026-05-08 06:18 39.27487 -74.60697 25607 ft 459 kts 40°
2026-05-08 06:18 39.29939 -74.58027 25003 ft 459 kts 40°
2026-05-08 06:19 39.32381 -74.55366 24401 ft 458 kts 40°
2026-05-08 06:19 39.34807 -74.52720 23793 ft 457 kts 40°
2026-05-08 06:19 39.37231 -74.50077 23165 ft 453 kts 40°
2026-05-08 06:19 39.39633 -74.47458 22538 ft 449 kts 40°
2026-05-08 06:20 39.42028 -74.44840 21908 ft 445 kts 40°
2026-05-08 06:20 39.44381 -74.42291 21284 ft 441 kts 40°
2026-05-08 06:20 39.46733 -74.39727 20653 ft 437 kts 40°
2026-05-08 06:20 39.49048 -74.37191 20028 ft 435 kts 40°
2026-05-08 06:21 39.51314 -74.34709 19411 ft 430 kts 40°
2026-05-08 06:21 39.53492 -74.32321 18808 ft 426 kts 40°
2026-05-08 06:21 39.55768 -74.29826 18179 ft 426 kts 40°
2026-05-08 06:21 39.58015 -74.27358 17552 ft 421 kts 40°
2026-05-08 06:22 39.60240 -74.24919 16928 ft 417 kts 40°
2026-05-08 06:22 39.62425 -74.22519 16303 ft 412 kts 40°
2026-05-08 06:22 39.64605 -74.20117 15677 ft 409 kts 40°
2026-05-08 06:22 39.66787 -74.17714 15045 ft 404 kts 40°
2026-05-08 06:23 39.68894 -74.15396 14429 ft 401 kts 40°
2026-05-08 06:23 39.71038 -74.13049 13835 ft 398 kts 40°
2026-05-08 06:23 39.73129 -74.10744 13263 ft 395 kts 40°
2026-05-08 06:23 39.75219 -74.08432 12678 ft 377 kts 40°
2026-05-08 06:24 39.77119 -74.06327 12112 ft 349 kts 40°
2026-05-08 06:24 39.78884 -74.04371 11770 ft 321 kts 40°
2026-05-08 06:24 39.80527 -74.02549 11502 ft 299 kts 40°
2026-05-08 06:24 39.82106 -74.00800 11255 ft 295 kts 40°
2026-05-08 06:25 39.83671 -73.99103 11002 ft 290 kts 37°
2026-05-08 06:25 39.85325 -73.97659 10752 ft 286 kts 31°
2026-05-08 06:25 39.87039 -73.96423 10503 ft 282 kts 27°
2026-05-08 06:25 39.88789 -73.95235 10251 ft 281 kts 27°
2026-05-08 06:26 39.90521 -73.94039 10000 ft 281 kts 28°
2026-05-08 06:26 39.92222 -73.92848 9751 ft 279 kts 28°
2026-05-08 06:26 39.93938 -73.91637 9499 ft 278 kts 28°
2026-05-08 06:26 39.95623 -73.90443 9250 ft 277 kts 28°
2026-05-08 06:27 39.97311 -73.89246 9000 ft 276 kts 28°
2026-05-08 06:27 39.98994 -73.88052 8749 ft 275 kts 28°
2026-05-08 06:27 40.00680 -73.86855 8497 ft 274 kts 28°
2026-05-08 06:27 40.02321 -73.85707 8252 ft 274 kts 26°
2026-05-08 06:28 40.04065 -73.84635 7999 ft 274 kts 24°
2026-05-08 06:28 40.05804 -73.83616 7758 ft 271 kts 24°
2026-05-08 06:28 40.07519 -73.82610 7533 ft 270 kts 24°
2026-05-08 06:28 40.09230 -73.81601 7307 ft 269 kts 24°
2026-05-08 06:29 40.10933 -73.80591 7081 ft 268 kts 24°
2026-05-08 06:29 40.12632 -73.79581 6856 ft 267 kts 24°
2026-05-08 06:29 40.14327 -73.78570 6630 ft 266 kts 24°
2026-05-08 06:29 40.16012 -73.77563 6404 ft 266 kts 24°
2026-05-08 06:30 40.17115 -73.76903 6256 ft 265 kts 24°
2026-05-08 06:30 40.18793 -73.75897 6030 ft 264 kts 24°
2026-05-08 06:30 40.21012 -73.74567 5730 ft 263 kts 24°
2026-05-08 06:30 40.22133 -73.73894 5578 ft 262 kts 24°
2026-05-08 06:31 40.24333 -73.72589 5279 ft 261 kts 24°
2026-05-08 06:31 40.25435 -73.71937 5129 ft 261 kts 24°
2026-05-08 06:31 40.27093 -73.70953 4902 ft 260 kts 24°
2026-05-08 06:31 40.28735 -73.69973 4678 ft 260 kts 24°
2026-05-08 06:32 40.30372 -73.68991 4452 ft 259 kts 24°
2026-05-08 06:32 40.32005 -73.68010 4240 ft 258 kts 24°
2026-05-08 06:32 40.33638 -73.67027 4039 ft 257 kts 25°
2026-05-08 06:32 40.35267 -73.66044 3838 ft 256 kts 24°
2026-05-08 06:33 40.36889 -73.65065 3637 ft 256 kts 24°
2026-05-08 06:33 40.38502 -73.64091 3437 ft 255 kts 24°
2026-05-08 06:33 40.40107 -73.63121 3236 ft 254 kts 24°
2026-05-08 06:33 40.41696 -73.62160 3038 ft 253 kts 24°
2026-05-08 06:34 40.43299 -73.61190 2836 ft 253 kts 24°
2026-05-08 06:34 40.44918 -73.60210 2634 ft 253 kts 24°
2026-05-08 06:34 40.46494 -73.59256 2436 ft 252 kts 24°
2026-05-08 06:34 40.48030 -73.58326 2221 ft 233 kts 24°
2026-05-08 06:35 40.49448 -73.57467 2007 ft 215 kts 24°
2026-05-08 06:35 40.50766 -73.56700 1923 ft 200 kts 17°
2026-05-08 06:35 40.52087 -73.56711 1893 ft 191 kts 342°
2026-05-08 06:35 40.53224 -73.57549 1954 ft 180 kts 321°
2026-05-08 06:36 40.54061 -73.58723 1999 ft 173 kts 309°
2026-05-08 06:36 40.54784 -73.59954 2019 ft 168 kts 307°
2026-05-08 06:36 40.55459 -73.61197 2004 ft 166 kts 304°
2026-05-08 06:36 40.56088 -73.62471 1995 ft 164 kts 302°
2026-05-08 06:37 40.56683 -73.63737 1999 ft 164 kts 301°
2026-05-08 06:37 40.57280 -73.65033 1999 ft 164 kts 301°
2026-05-08 06:37 40.57804 -73.66179 1999 ft 164 kts 301°
2026-05-08 06:37 40.58141 -73.66918 1937 ft 165 kts 301°
2026-05-08 06:38 40.58721 -73.68192 1751 ft 164 kts 301°
2026-05-08 06:38 40.59299 -73.69465 1522 ft 159 kts 301°
2026-05-08 06:38 40.59862 -73.70705 1310 ft 156 kts 300°
2026-05-08 06:38 40.60409 -73.71910 1118 ft 152 kts 300°
2026-05-08 06:39 40.60949 -73.73099 909 ft 148 kts 300°
2026-05-08 06:39 40.61448 -73.74200 703 ft 137 kts 300°
2026-05-08 06:39 40.61928 -73.75256 543 ft 132 kts 300°
2026-05-08 06:39 40.62387 -73.76270 372 ft 128 kts 299°
2026-05-08 06:40 40.62820 -73.77233 230 ft 122 kts 298°
2026-05-08 06:40 40.63262 -73.78209 62 ft 121 kts 299°
2026-05-08 06:40 40.63636 -73.79029 22 ft 103 kts 298°
2026-05-08 06:40 40.63899 -73.79612 22 ft 41 kts 301°
2026-05-08 06:41 40.64015 -73.79861 22 ft 23 kts 308°
2026-05-08 06:41 40.64137 -73.79852 22 ft 20 kts 55°
2026-05-08 06:41 40.64149 -73.79669 22 ft 21 kts 112°
2026-05-08 06:41 40.64073 -73.79512 22 ft 20 kts 121°
2026-05-08 06:42 40.64006 -73.79358 22 ft 19 kts 120°
2026-05-08 06:42 40.63945 -73.79220 22 ft 19 kts 121°
2026-05-08 06:42 40.63862 -73.79042 22 ft 24 kts 122°
2026-05-08 06:42 40.63777 -73.78854 22 ft 23 kts 118°
2026-05-08 06:43 40.63699 -73.78675 22 ft 22 kts 121°
2026-05-08 06:43 40.63621 -73.78508 22 ft 21 kts 122°
2026-05-08 06:43 40.63538 -73.78329 22 ft 23 kts 120°
2026-05-08 06:43 40.63451 -73.78135 22 ft 27 kts 121°
2026-05-08 06:44 40.63420 -73.77927 22 ft 24 kts 59°
2026-05-08 06:44 40.63544 -73.77811 22 ft 15 kts
2026-05-08 06:44 40.63629 -73.77869 22 ft 15 kts 354°
2026-05-08 06:44 40.63734 -73.77877 22 ft 17 kts 358°
2026-05-08 06:45 40.63871 -73.77886 22 ft 19 kts 360°
2026-05-08 06:45 40.63977 -73.77891 22 ft 12 kts 358°
2026-05-08 06:45 40.64031 -73.77946 22 ft 7 kts 295°
2026-05-08 06:45 40.64040 -73.77993 22 ft 5 kts 263°
2026-05-08 06:46 40.64027 -73.78048 22 ft 7 kts 249°
2026-05-08 06:46 40.64017 -73.78082 22 ft 0 kts 249°
2026-05-08 06:46 40.64016 -73.78085 22 ft 0 kts 249°